• Join FlightAware (Why Join?)
  • Login
  • US Flag 
06:38AM EST


 

Airport Tracker/Info


-or-


 

Live Flight TrackerFlight Track Log ✈ LAK145 ✈ 18-Mar-2014 ✈ KMKE - KRGK

Flight Track Log - Related Links

Times and Time Zones

All times are in EDT time to prevent confusion due to time zone crossing. See the LAK145 flight status page for this flight to view local times or setup timezone preferences in your user account.

Time Position Orientation Groundspeed Altitude Reporting Facility
EDT Latitude Longitude Course Direction KTS MPH feet Rate Location/Type
01:31AM 42.9500 -87.9000 216° Southwest 116 133 1,600  Level KMKE
01:32AM 42.9333 -87.9167 216° Southwest 133 153 3,500 3,300 Climbing KMKE
01:33AM 42.9411 -87.9731 281° West 189 217 6,000 3,420 Climbing Chicago Center
01:34AM 42.9408 -88.0581 270° West 217 250 9,400 2,940 Climbing Chicago Center
01:35AM 42.9356 -88.1536 266° West 247 284 12,000 2,760 Climbing Chicago Center
01:36AM 42.9675 -88.2494 295° West 272 313 15,000 2,760 Climbing Chicago Center
01:37AM 43.0061 -88.3433 299° West 280 322 17,600 2,700 Climbing Chicago Center
01:38AM 43.0450 -88.4408 299° West 289 333 20,400 2,520 Climbing Chicago Center
01:39AM 43.0861 -88.5392 300° West 292 336 22,700 2,280 Climbing Chicago Center
01:40AM 43.1286 -88.6436 299° West 309 356 25,000 1,620 Climbing Chicago Center
01:41AM 43.1708 -88.7478 299° West 310 357 26,000 480 Climbing Chicago Center
01:42AM 43.2194 -88.8664 299° West 347 399 26,000  Level Chicago Center
01:43AM 43.2661 -88.9836 299° West 351 404 26,000  Level Chicago Center
01:44AM 43.3111 -89.0958 299° West 339 390 26,000  Level Chicago Center
01:45AM 43.3544 -89.2061 298° West 329 379 26,000  Level Chicago Center
01:46AM 43.3986 -89.3172 299° West 334 384 26,000  Level Chicago Center
01:47AM 43.4431 -89.4278 299° West 330 380 26,000  Level Chicago Center
01:48AM 43.4858 -89.5394 298° West 331 381 26,000  Level Chicago Center
01:49AM 43.5311 -89.6519 299° West 334 384 26,000  Level Chicago Center
01:50AM 43.5747 -89.7650 298° West 335 386 26,000  Level Chicago Center
01:51AM 43.6181 -89.8769 298° West 332 382 26,000  Level Chicago Center
01:52AM 43.6639 -89.9881 300° West 333 383 26,000  Level Chicago Center
01:53AM 43.7044 -90.1011 296° West 331 381 26,000  Level Chicago Center
01:54AM 43.7503 -90.2125 300° West 332 382 26,000  Level Chicago Center
01:55AM 43.7839 -90.3081 296° West 332 382 26,000  Level Chicago Center
01:56AM 43.8289 -90.4206 299° West 336 387 26,000  Level Chicago Center
01:57AM 43.8711 -90.5347 297° West 337 388 26,000  Level Chicago Center
01:58AM 43.9239 -90.6717 298° West 338 389 26,000  Level Chicago Center
01:59AM 43.9689 -90.7872 298° West 341 392 26,000  Level Chicago Center
02:00AM 44.0139 -90.9106 297° West 350 403 26,000  Level Chicago Center
02:01AM 44.0581 -91.0294 297° West 353 406 26,000 -540 Level Chicago Center
02:02AM 44.1000 -91.1478 296° West 350 403 25,000 -1,440 Descending Chicago Center
02:03AM 44.1461 -91.2664 298° West 350 403 23,200 -1,800 Descending Chicago Center
02:04AM 44.1881 -91.3858 296° West 349 402 21,500 -1,740 Descending Chicago Center
02:05AM 44.2314 -91.4931 299° West 341 392 19,800 -1,800 Descending Chicago Center
02:06AM 44.2731 -91.6053 297° West 332 382 17,900 -1,860 Descending Chicago Center
02:07AM 44.3147 -91.7211 297° West 336 387 16,100 -1,800 Descending Chicago Center
02:08AM 44.3569 -91.8328 298° West 331 381 14,400 -1,740 Descending Chicago Center
02:09AM 44.3944 -91.9458 295° West 326 375 12,700 -1,800 Descending Chicago Center
02:10AM 44.4533 -92.1089 297° West 301 346 10,000 -1,680 Descending Minneapolis Center
02:11AM 44.4875 -92.2011 297° West 277 319 8,600 -1,620 Descending Minneapolis Center
02:12AM 44.5044 -92.2931 285° West 251 289 6,800 -1,620 Descending Minneapolis Center
02:13AM 44.4983 -92.3803 264° West 228 262 5,400 -1,260 Descending Minneapolis Center
02:14AM 44.4944 -92.4600 266° West 212 244 4,300 -720 Descending Minneapolis Center
02:15AM 44.5003 -92.5331 276° West 191 220 4,000 -180 Descending Minneapolis Center
02:16AM 44.5036 -92.5997 274° West 177 204 4,000  Level Minneapolis Center
02:17AM 44.5061 -92.6656 273° West 174 200 4,000 -60 Level Minneapolis Center
02:18AM 44.5156 -92.7275 282° West 174 200 3,900 -480 Descending Minneapolis Center
02:19AM 44.5669 -92.7356 354° North 185 213 3,100 -480 Descending Minneapolis Center
02:20AM 44.6028 -92.6994 36° Northeast 185 213 3,000 -120 Descending Minneapolis Center